Tracking 28126 objects as of 1-Oct-2023
HD Live streaming from Space Station
objects crossing your sky now

SL-12 R/B(2)

Track SL-12 R/B(2) now!


NORAD ID: 33111
Int'l Code: 2008-033D
Perigee: 35,679.9 km
Apogee: 35,924.4 km
Inclination: 8.7 °
Period: 1,436.5 minutes
Semi major axis: 42173 km
RCS: 2.244 m2 (large)
Launch date: June 27, 2008
Source: Commonwealth of Independent States (former USSR) (CIS)
Launch site: TYURATAM MISSILE AND SPACE COMPLEX (TTMTR)

Note: This is a ROCKET BODY
Your satellite tracking list
Your tracking list is empty




NASA's NSSDC Master Catalog

Two Line Element Set (TLE):
1 33111U 08033D   23274.00781642 -.00000019  00000-0  00000+0 0  9999
2 33111   8.6563  48.2937 0028996 318.0508  72.4522  1.00241784 55875
Source of the keplerian elements: AFSPC